EW3176 Weather Reports


time (UTC)temp
F
wind
direction
speed
knots
gust
knots
rain 1hr
in
rain 24hr
in
rain mn
in
humidity
%
barometer
mb
20260507033022 68 0.0 0.0 0.00 0.00 0.00 92 1014.8
20260507032042 69 0.0 0.9 0.00 0.00 0.00 92 1015.2
20260507031022 69 0.0 0.0 0.00 0.00 0.00 92 1015.4
20260507030022 69 0.0 0.0 0.00 0.00 0.00 91 1015.4
20260507025021 70 0.0 0.0 0.00 0.00 0.00 90 1015.1
20260507024042 70 0.0 0.0 0.00 0.00 0.00 89 1014.9
20260507023521 70 0.0 0.0 0.00 0.00 0.00 89 1014.8
20260507022522 70 0.0 0.0 0.00 0.00 0.00 89 1014.6
20260507021522 70 0.0 0.9 0.00 0.00 0.00 88 1014.5
20260507020522 70 0.0 0.0 0.00 0.00 0.00 88 1014.4
20260507015521 70 0.0 0.0 0.00 0.00 0.00 87 1014.4
20260507014522 70 0.0 0.0 0.00 0.00 0.00 87 1014.6
20260507013522 70 0.0 0.0 0.00 0.00 0.00 86 1014.7
20260507012521 70 0.0 0.0 0.00 0.00 0.00 86 1014.3
20260507011521 71 0.0 0.0 0.00 0.00 0.00 85 1014.5
20260507010521 71 0.0 0.0 0.00 0.00 0.00 85 1014.4
20260507005521 71 0.0 0.0 0.00 0.00 0.00 84 1014.5
20260507004521 71 0.0 0.0 0.00 0.00 0.00 84 1014.6
20260507003522 71 0.0 0.0 0.00 0.00 0.00 84 1014.0
20260507002521 71 0.0 0.0 0.00 0.00 0.00 83 1014.5
20260507001522 72 0.0 0.0 0.00 0.00 0.00 82 1014.5
20260507000542 72 0.0 0.0 0.00 0.00 0.00 82 1014.5
20260506235521 73 0.0 0.0 0.00 0.00 0.00 81 1014.5
20260506234521 73 0.0 0.0 0.00 0.00 0.00 80 1014.5
20260506233541 73 0.0 0.9 0.00 0.00 0.00 80 1014.5
20260506232521 73 0.0 0.9 0.00 0.00 0.00 79 1014.5
20260506231723 74 0.0 1.7 0.00 0.00 0.00 79 1014.5
20260506230521 74 0.0 1.7 0.00 0.00 0.00 78 1014.6
20260506225521 74 0.0 0.9 0.00 0.00 0.00 78 1014.7
20260506224521 74 0.0 1.7 0.00 0.00 0.00 77 1014.6
20260506223521 74 0.0 1.7 0.00 0.00 0.00 77 1014.6
20260506222541 75 45 0.9 3.5 0.00 0.00 0.00 76 1014.5
20260506221521 74 45 0.9 4.3 0.00 0.00 0.00 77 1014.2
20260506220522 74 0.0 4.3 0.00 0.00 0.00 77 1014.3
20260506215521 74 45 0.9 4.3 0.00 0.00 0.00 77 1014.3
20260506214521 74 0.0 2.6 0.00 0.00 0.00 78 1014.2
20260506213541 74 68 0.9 5.2 0.00 0.00 0.00 78 1014.3
20260506212521 74 0.0 2.6 0.00 0.00 0.00 79 1014.5
20260506211521 74 0.0 2.6 0.00 0.00 0.00 79 1014.5
20260506210521 74 0.0 3.5 0.00 0.00 0.00 80 1014.5
20260506205521 73 45 0.9 2.6 0.00 0.00 0.00 81 1014.4
20260506204521 73 45 0.9 3.5 0.00 0.00 0.00 81 1014.4
20260506203521 73 0.0 1.7 0.00 0.00 0.00 84 1014.3
20260506202714 71 0.0 6.1 0.00 0.00 0.00 85 1014.2
20260506202021 71 23 0.9 2.6 0.00 0.00 0.00 85 1014.1
20260506201021 71 0.0 5.2 0.00 0.00 0.00 86 1014.3
20260506200022 70 68 0.9 3.5 0.00 0.00 0.00 87 1014.5
20260506195022 70 45 0.9 5.2 0.00 0.00 0.00 89 1014.6
20260506194022 69 90 0.9 4.3 0.00 0.00 0.00 90 1014.5
20260506193022 69 0.0 0.9 0.00 0.00 0.00 90 1014.8
20260506192022 69 0.0 3.5 0.00 0.00 0.00 89 1014.7
20260506191022 69 0.0 1.7 0.00 0.00 0.00 87 1015.6
20260506190022 70 45 0.9 6.1 0.00 0.00 0.00 84 1016.3
20260506185042 73 68 0.9 4.3 0.00 0.00 0.00 79 1016.8
20260506184022 74 0.0 2.6 0.00 0.00 0.00 73 1017.0
20260506183022 74 45 0.9 4.3 0.00 0.00 0.00 73 1017.1
20260506182022 73 45 0.9 3.5 0.00 0.00 0.00 73 1016.9
20260506181022 74 0.0 3.5 0.00 0.00 0.00 73 1017.0
20260506180022 73 45 0.9 3.5 0.00 0.00 0.00 74 1017.0
20260506175022 73 45 0.9 2.6 0.00 0.00 0.00 74 1017.0
20260506174022 72 45 0.9 4.3 0.00 0.00 0.00 75 1016.8
20260506173022 71 248 0.9 5.2 0.00 0.00 0.00 76 1017.0
20260506172022 70 45 0.9 3.5 0.00 0.00 0.00 76 1016.9
20260506171042 70 68 0.9 4.3 0.00 0.00 0.00 77 1017.2
20260506170021 69 45 0.9 5.2 0.00 0.00 0.00 78 1017.3
20260506165042 69 68 0.9 4.3 0.00 0.00 0.00 79 1017.3
20260506164022 69 248 0.9 6.1 0.00 0.00 0.00 78 1017.2
20260506163042 69 45 0.9 4.3 0.00 0.00 0.00 76 1017.2
20260506162021 70 0.0 3.5 0.00 0.00 0.00 75 1017.3
20260506161042 70 45 0.9 2.6 0.00 0.00 0.00 73 1017.4
20260506160022 70 0.0 2.6 0.00 0.00 0.00 74 1017.5
20260506155522 70 0.0 1.7 0.00 0.00 0.00 74 1017.5
20260506154521 70 45 0.9 2.6 0.00 0.00 0.00 73 1017.5
20260506153521 70 0.0 0.9 0.00 0.00 0.00 74 1017.4
20260506152522 69 0.0 2.6 0.00 0.00 0.00 74 1017.5
20260506151521 69 0.0 1.7 0.00 0.00 0.00 74 1017.3
20260506150542 69 0.0 5.2 0.00 0.00 0.00 73 1017.2
20260506145602 69 0.0 2.6 0.00 0.00 0.00 73 1017.2
20260506144521 69 45 0.9 3.5 0.00 0.00 0.00 73 1017.0
20260506143602 69 0.0 1.7 0.00 0.00 0.00 73 1016.6
20260506142542 68 68 0.9 3.5 0.00 0.00 0.00 74 1016.8
20260506141541 68 45 0.9 4.3 0.00 0.00 0.00 75 1017.1
20260506140521 67 0.0 5.2 0.00 0.00 0.00 75 1017.1
20260506135521 67 0.0 1.7 0.00 0.00 0.00 75 1017.2
20260506134521 67 0.0 0.9 0.00 0.00 0.00 76 1017.3
20260506133541 66 248 0.9 4.3 0.00 0.00 0.00 77 1017.4
20260506132521 66 68 0.9 4.3 0.00 0.00 0.00 77 1017.5
20260506131522 66 0.0 3.5 0.00 0.00 0.00 78 1017.6
20260506130521 65 0.0 3.5 0.00 0.00 0.00 79 1017.9
20260506125602 65 0.0 2.6 0.00 0.00 0.00 79 1017.6
20260506124521 65 0.0 0.0 0.00 0.00 0.00 80 1017.4
20260506123522 65 0.0 1.7 0.00 0.00 0.00 80 1017.3
20260506122602 64 45 0.9 2.6 0.00 0.00 0.00 81 1017.1
20260506121521 64 0.0 1.7 0.00 0.00 0.00 81 1017.1
20260506120521 64 0.0 1.7 0.00 0.00 0.00 81 1017.0
20260506120041 64 0.0 0.9 0.00 0.00 0.00 80 1016.9
20260506115021 64 0.0 2.6 0.00 0.00 0.00 80 1016.6
20260506114021 64 0.0 3.5 0.00 0.00 0.00 80 1016.8
20260506113021 64 0.0 1.7 0.00 0.00 0.00 81 1016.9
20260506112137 64 0.0 0.9 0.00 0.00 0.00 81 1016.9
20260506111520 64 0.0 1.7 0.00 0.00 0.00 81 1017.1
20260506110521 63 0.0 1.7 0.00 0.00 0.00 81 1016.8
20260506105541 63 0.0 2.6 0.00 0.00 0.00 82 1016.8
20260506104541 63 0.0 4.3 0.00 0.00 0.00 82 1016.8
20260506103521 63 0.0 1.7 0.00 0.00 0.00 82 1016.6
20260506102521 63 0.0 1.7 0.00 0.00 0.00 81 1016.6
20260506101521 63 0.0 2.6 0.00 0.00 0.00 81 1016.4
20260506100541 63 0.0 1.7 0.00 0.00 0.00 81 1016.9
20260506095601 63 0.0 1.7 0.00 0.00 0.00 81 1016.8
20260506094521 63 0.0 2.6 0.00 0.00 0.00 81 1016.8
20260506093541 63 0.0 1.7 0.00 0.00 0.00 80 1017.0
20260506092541 63 0.0 3.5 0.00 0.00 0.00 80 1017.2
20260506091520 63 0.0 2.6 0.00 0.00 0.00 80 1017.2
20260506090521 64 0.0 3.5 0.00 0.00 0.00 81 1017.3
20260506085541 64 0.0 2.6 0.00 0.00 0.00 81 1017.4
20260506084521 64 0.0 1.7 0.00 0.00 0.00 81 1017.1
20260506083520 64 0.0 3.5 0.00 0.00 0.00 81 1017.3
20260506082520 64 0.0 1.7 0.00 0.00 0.00 81 1017.3
20260506081520 64 0.0 0.9 0.00 0.00 0.00 81 1017.2
20260506080541 64 0.0 1.7 0.00 0.00 0.00 81 1017.1
20260506073520 64 0.0 3.5 0.00 0.00 0.00 81 1017.3
20260506072520 64 0.0 2.6 0.00 0.00 0.00 80 1017.2
20260506071522 64 68 0.9 2.6 0.00 0.00 0.00 80 1017.5
20260506070522 64 0.0 3.5 0.00 0.00 0.00 80 1017.4
20260506061521 65 0.0 3.5 0.00 0.00 0.00 79 1017.6
20260506061021 65 0.0 1.7 0.00 0.00 0.00 79 1017.9
20260506051021 66 68 0.9 3.5 0.00 0.00 0.00 77 1018.2
20260506045021 66 45 0.9 3.5 0.00 0.00 0.00 76 1018.4
20260506044021 66 45 0.9 4.3 0.00 0.00 0.00 75 1018.4
20260506043021 66 45 0.9 3.5 0.00 0.00 0.00 75 1018.2
20260506042021 67 45 0.9 5.2 0.00 0.00 0.00 74 1018.1
20260506041041 67 0.0 2.6 0.00 0.00 0.00 73 1018.1
20260506040043 67 0.0 2.6 0.00 0.00 0.00 72 1018.1
20260506035041 68 45 0.9 4.3 0.00 0.00 0.00 72 1018.1
20260506034021 68 45 0.9 3.5 0.00 0.00 0.00 71 1018.2